#�ϑ�����,���ϕ���,���ϕ���,�ő啗��,�ő啗����������,�ő�u�ԕ���,�ő�u�ԕ�����������
#(�N����),(m/s)   ,(16����),(m/s)   ,(16����)        ,(m/s)       ,(16����)            
2018/12/24 0:01,3.3,15,3.3,15,5.5,11
2018/12/24 0:02,3.2,15,3.3,15,2.5,13
2018/12/24 0:03,3.1,15,3.2,15,8.2,15
2018/12/24 0:04,3.1,15,3.1,16,7.6,1
2018/12/24 0:05,3.4,15,3.4,16,6.9,1
2018/12/24 0:06,3.6,15,3.6,15,4.8,2
2018/12/24 0:07,3.6,15,3.6,15,6.4,11
2018/12/24 0:08,3.6,14,3.7,14,6.2,12
2018/12/24 0:09,3.2,14,3.6,14,3,14
2018/12/24 0:10,3,14,3.2,14,4.5,16
2018/12/24 0:11,3,15,3,14,5.4,1
2018/12/24 0:12,3.1,15,3.1,14,6.1,16
2018/12/24 0:13,3.4,15,3.4,14,7.9,16
2018/12/24 0:14,3.4,15,3.4,14,6.3,15
2018/12/24 0:15,3.4,15,3.5,14,6.9,16
2018/12/24 0:16,3.2,15,3.4,14,2.5,12
2018/12/24 0:17,3.1,16,3.2,14,6.3,16
2018/12/24 0:18,3.3,16,3.3,14,7.5,16
2018/12/24 0:19,3.6,16,3.6,16,8.4,16
2018/12/24 0:20,3.5,16,3.6,16,4.2,15
2018/12/24 0:21,3.4,16,3.5,16,4.2,15
2018/12/24 0:22,3.4,16,3.5,16,3.5,16
2018/12/24 0:23,3.1,16,3.4,16,3.8,1
2018/12/24 0:24,2.9,16,3.1,16,2.5,15
2018/12/24 0:25,2.9,16,3,16,9.5,16
2018/12/24 0:26,3.4,16,3.4,16,11.8,16
2018/12/24 0:27,3.6,16,3.6,16,7.6,1
2018/12/24 0:28,3.6,16,3.6,16,7.6,15
2018/12/24 0:29,3.6,16,3.6,16,8.2,15
2018/12/24 0:30,4,16,4,16,10.2,16
2018/12/24 0:31,4.1,16,4.2,16,9.2,16
2018/12/24 0:32,4.1,16,4.1,16,4.8,16
2018/12/24 0:33,4.4,16,4.4,16,5.6,15
2018/12/24 0:34,4.6,16,4.6,16,6.5,16
2018/12/24 0:35,4.9,16,4.9,16,10.7,16
2018/12/24 0:36,4.7,16,4.9,16,6.9,16
2018/12/24 0:37,4.6,16,4.7,16,5.7,13
2018/12/24 0:38,4.3,16,4.6,16,5.6,15
2018/12/24 0:39,4.2,15,4.4,16,6.8,16
2018/12/24 0:40,4,16,4.1,16,7.5,1
2018/12/24 0:41,4.1,16,4.1,16,8.4,16
2018/12/24 0:42,4.3,16,4.4,16,10,15
2018/12/24 0:43,4.3,16,4.4,16,6,2
2018/12/24 0:44,4.3,16,4.3,16,6.4,2
2018/12/24 0:45,4,16,4.3,16,6.4,15
2018/12/24 0:46,3.9,16,4,16,5.7,16
2018/12/24 0:47,3.8,16,3.9,16,6.5,16
2018/12/24 0:48,4,16,4,15,8.9,16
2018/12/24 0:49,4,16,4,16,5.8,13
2018/12/24 0:50,3.9,16,4,16,6.9,13
2018/12/24 0:51,3.7,16,3.9,16,4.5,13
2018/12/24 0:52,3.4,16,3.6,16,3.9,16
2018/12/24 0:53,3.2,16,3.4,16,2.1,3
2018/12/24 0:54,3.2,16,3.2,16,5.7,15
2018/12/24 0:55,3.2,16,3.2,16,6.3,1
2018/12/24 0:56,3.2,16,3.3,16,6.1,2
2018/12/24 0:57,3.3,16,3.3,16,6.1,16
2018/12/24 0:58,3.1,16,3.3,16,4.2,16
2018/12/24 0:59,2.8,16,3,16,2.1,3
2018/12/24 1:00,2.7,16,2.8,16,3.9,15
2018/12/24 1:01,2.6,16,2.7,16,2.6,16
2018/12/24 1:02,2.6,16,2.6,16,3,14
2018/12/24 1:03,2.5,16,2.6,16,1.9,1
2018/12/24 1:04,2.2,16,2.5,16,1.6,16
2018/12/24 1:05,2.1,16,2.2,16,4.2,16
2018/12/24 1:06,2,16,2.2,16,5,16
2018/12/24 1:07,2,16,2,16,6.5,1
2018/12/24 1:08,2.7,16,2.7,16,12.5,16
2018/12/24 1:09,3.2,16,3.2,16,8.7,15
2018/12/24 1:10,3.4,16,3.4,16,6.1,15
2018/12/24 1:11,3.4,16,3.4,16,3.8,16
2018/12/24 1:12,3.2,16,3.4,16,1.3,14
2018/12/24 1:13,3.2,16,3.2,16,1.5,4
2018/12/24 1:14,3.2,16,3.2,16,3.2,16
2018/12/24 1:15,3.4,16,3.4,16,5.4,15
2018/12/24 1:16,3.5,16,3.5,16,5.7,14
2018/12/24 1:17,3.3,16,3.5,16,5.8,16
2018/12/24 1:18,2.9,16,3.3,16,6.8,16
2018/12/24 1:19,2.5,16,2.9,16,4.4,16
2018/12/24 1:20,2.3,16,2.5,16,3.1,16
2018/12/24 1:21,2.5,16,2.5,16,5.8,1
2018/12/24 1:22,3,16,3,16,7.7,16
2018/12/24 1:23,3.2,16,3.2,16,6.8,16
2018/12/24 1:24,3.5,16,3.5,16,5.5,16
2018/12/24 1:25,3.5,16,3.5,16,6,16
2018/12/24 1:26,3.4,16,3.5,16,4.1,16
2018/12/24 1:27,3.4,16,3.4,16,4.3,16
2018/12/24 1:28,3.2,16,3.4,16,3.2,16
2018/12/24 1:29,3.2,16,3.2,16,3.7,15
2018/12/24 1:30,3.4,16,3.4,16,5.2,15
2018/12/24 1:31,3.3,16,3.4,16,5.6,16
2018/12/24 1:32,3.3,16,3.4,16,7.6,14
2018/12/24 1:33,3.2,16,3.3,16,4.8,16
2018/12/24 1:34,3.1,16,3.2,16,3.7,1
2018/12/24 1:35,2.9,16,3.1,16,4.5,15
2018/12/24 1:36,3,16,3,16,5.5,16
2018/12/24 1:37,3,16,3,16,4.2,15
2018/12/24 1:38,3,16,3,16,4.5,15
2018/12/24 1:39,3.2,16,3.2,16,6.3,15
2018/12/24 1:40,3.2,16,3.2,16,9.7,15
2018/12/24 1:41,3.5,16,3.5,16,8.6,15
2018/12/24 1:42,3.4,16,3.5,16,8.2,15
2018/12/24 1:43,3.6,16,3.6,16,6.7,1
2018/12/24 1:44,3.8,16,3.8,16,9.9,15
2018/12/24 1:45,4,16,4,16,7.2,15
2018/12/24 1:46,4,15,4,16,6.1,15
2018/12/24 1:47,4.1,15,4.1,16,5,16
2018/12/24 1:48,4.3,16,4.3,16,10.2,15
2018/12/24 1:49,4.4,16,4.4,16,8.3,15
2018/12/24 1:50,4.2,16,4.4,16,5.1,16
2018/12/24 1:51,4,16,4.2,16,5.2,14
2018/12/24 1:52,3.8,15,4,16,4.4,16
2018/12/24 1:53,3.5,15,3.8,16,3.1,16
2018/12/24 1:54,3.1,16,3.5,16,2,2
2018/12/24 1:55,2.8,16,3.1,16,1.8,2
2018/12/24 1:56,2.4,16,2.8,16,0.9,1
2018/12/24 1:57,2.2,16,2.4,16,1.3,14
2018/12/24 1:58,1.9,16,2.2,16,1.4,14
2018/12/24 1:59,1.5,15,1.8,16,2.5,16
2018/12/24 2:00,1.4,16,1.5,16,2.1,1
2018/12/24 2:01,1.2,16,1.3,16,2,14
2018/12/24 2:02,1.2,16,1.2,15,4.1,15
2018/12/24 2:03,1.5,16,1.5,15,5,16
2018/12/24 2:04,1.8,16,1.8,16,6.8,16
2018/12/24 2:05,2.2,15,2.2,16,7.4,15
2018/12/24 2:06,2.5,15,2.5,15,7.4,15
2018/12/24 2:07,2.9,15,2.9,15,6.4,15
2018/12/24 2:08,3.3,16,3.3,16,7.7,16
2018/12/24 2:09,3.6,16,3.6,16,6.2,14
2018/12/24 2:10,3.8,16,3.8,16,6,15
2018/12/24 2:11,4,15,4,15,6.3,14
2018/12/24 2:12,4,16,4.1,16,6,15
2018/12/24 2:13,4,15,4,16,5.4,15
2018/12/24 2:14,3.9,15,4.1,16,6.3,16
2018/12/24 2:15,3.6,15,3.9,16,3.5,16
2018/12/24 2:16,3.4,15,3.6,16,3.3,15
2018/12/24 2:17,3.1,16,3.4,16,2.4,2
2018/12/24 2:18,2.7,15,3.1,16,1.6,15
2018/12/24 2:19,2.3,15,2.6,16,2.2,15
2018/12/24 2:20,2.1,16,2.3,16,2.4,15
2018/12/24 2:21,2.1,16,2.2,16,4.2,15
2018/12/24 2:22,2,16,2.1,15,3.1,16
2018/12/24 2:23,1.8,16,2,15,2.9,15
2018/12/24 2:24,1.7,16,1.8,15,2.2,16
2018/12/24 2:25,1.7,16,1.7,15,2.7,14
2018/12/24 2:26,1.6,16,1.7,15,3.6,15
2018/12/24 2:27,1.7,15,1.7,16,2.9,16
2018/12/24 2:28,1.9,15,1.9,15,3,16
2018/12/24 2:29,2,15,2,15,3.7,16
2018/12/24 2:30,2.1,15,2.1,16,4.2,15
2018/12/24 2:31,2.1,15,2.1,16,4.8,15
2018/12/24 2:32,2.2,15,2.2,15,3.7,15
2018/12/24 2:33,2.2,15,2.2,15,3.3,1
2018/12/24 2:34,2.3,15,2.3,15,3.5,1
2018/12/24 2:35,2.4,15,2.4,15,3.6,2
2018/12/24 2:36,2.5,16,2.5,16,4.1,15
2018/12/24 2:37,2.6,16,2.6,16,5.4,1
2018/12/24 2:38,2.7,16,2.7,16,5,15
2018/12/24 2:39,2.8,16,2.8,16,4.7,15
2018/12/24 2:40,2.8,16,2.8,16,4.9,16
2018/12/24 2:41,2.8,16,2.8,16,4.3,16
2018/12/24 2:42,2.8,16,2.8,16,4.4,16
2018/12/24 2:43,2.9,16,2.9,16,4.9,16
2018/12/24 2:44,2.8,16,2.9,16,4.4,16
2018/12/24 2:45,2.9,16,2.9,16,4.4,16
2018/12/24 2:46,3,16,3,16,4.8,15
2018/12/24 2:47,3.1,16,3.1,16,7,1
2018/12/24 2:48,3,16,3.1,16,4.9,16
2018/12/24 2:49,3,16,3,16,5.4,16
2018/12/24 2:50,3.1,16,3.1,16,5.8,16
2018/12/24 2:51,3.1,16,3.2,16,5.8,16
2018/12/24 2:52,3.3,16,3.3,16,5.1,16
2018/12/24 2:53,3.3,16,3.3,16,5.1,15
2018/12/24 2:54,3.3,16,3.4,16,3.6,16
2018/12/24 2:55,3.3,16,3.3,16,4.5,16
2018/12/24 2:56,3.3,16,3.4,16,5.6,16
2018/12/24 2:57,3.2,16,3.3,16,3.8,16
2018/12/24 2:58,3.3,16,3.3,16,5.6,14
2018/12/24 2:59,3.4,16,3.4,16,6.8,16
2018/12/24 3:00,3.4,16,3.4,16,4.9,16
2018/12/24 3:01,3.5,16,3.5,16,6.1,15
2018/12/24 3:02,3.6,16,3.6,16,8.3,15
2018/12/24 3:03,3.7,16,3.7,16,5.7,16
2018/12/24 3:04,3.8,16,3.8,16,5.8,15
2018/12/24 3:05,3.8,16,3.8,16,6.1,16
2018/12/24 3:06,3.8,16,3.9,16,5.2,16
2018/12/24 3:07,3.8,16,3.9,16,4.8,16
2018/12/24 3:08,3.9,16,3.9,16,4.8,15
2018/12/24 3:09,3.8,16,3.9,16,4.9,16
2018/12/24 3:10,3.7,16,3.8,16,5.2,15
2018/12/24 3:11,3.6,16,3.7,16,5.1,16
2018/12/24 3:12,3.5,16,3.6,16,5.4,16
2018/12/24 3:13,3.6,16,3.6,16,8.2,15
2018/12/24 3:14,3.7,16,3.7,16,6.9,16
2018/12/24 3:15,3.8,16,3.8,16,6.8,16
2018/12/24 3:16,3.9,16,3.9,16,8.6,16
2018/12/24 3:17,4.2,16,4.2,16,8.3,1
2018/12/24 3:18,4.2,16,4.2,16,6.8,16
2018/12/24 3:19,4.4,16,4.4,16,7.7,1
2018/12/24 3:20,4.4,16,4.4,16,6,15
2018/12/24 3:21,4.4,16,4.5,16,5.8,16
2018/12/24 3:22,4.5,16,4.5,16,8.2,16
2018/12/24 3:23,4.6,16,4.6,16,10.6,15
2018/12/24 3:24,4.7,16,4.7,16,8.9,1
2018/12/24 3:25,4.9,16,4.9,16,10.9,15
2018/12/24 3:26,5,16,5,16,11.1,16
2018/12/24 3:27,4.9,16,5,16,8.9,15
2018/12/24 3:28,4.9,16,4.9,16,9.1,15
2018/12/24 3:29,4.9,16,5,16,8.2,15
2018/12/24 3:30,5,16,5,16,8.7,16
2018/12/24 3:31,5.1,16,5.1,16,6.7,15
2018/12/24 3:32,5,16,5.1,16,5.7,1
2018/12/24 3:33,4.7,16,4.9,16,5.8,16
2018/12/24 3:34,4.5,16,4.7,16,5,16
2018/12/24 3:35,4.1,16,4.4,16,3.2,2
2018/12/24 3:36,3.9,16,4.1,16,4.8,16
2018/12/24 3:37,3.7,16,3.9,16,5.4,16
2018/12/24 3:38,3.5,16,3.7,16,4.5,16
2018/12/24 3:39,3.4,16,3.5,16,5.6,16
2018/12/24 3:40,3.5,16,3.5,16,6.5,16
2018/12/24 3:41,3.5,16,3.6,16,6.2,16
2018/12/24 3:42,3.5,16,3.5,16,6.5,16
2018/12/24 3:43,3.7,16,3.7,16,10.2,1
2018/12/24 3:44,3.6,16,3.7,16,5.6,1
2018/12/24 3:45,3.6,16,3.6,16,4.7,15
2018/12/24 3:46,3.8,16,3.8,16,8.4,16
2018/12/24 3:47,4,16,4,16,7.4,1
2018/12/24 3:48,4.1,16,4.1,16,7,15
2018/12/24 3:49,4.2,16,4.2,16,8.2,2
2018/12/24 3:50,4.1,16,4.3,16,9,2
2018/12/24 3:51,4.2,16,4.2,16,6.9,15
2018/12/24 3:52,4.2,16,4.2,16,6.3,15
2018/12/24 3:53,4.2,16,4.2,16,7.5,1
2018/12/24 3:54,4.5,16,4.5,16,8.4,15
2018/12/24 3:55,4.8,16,4.8,16,9.2,16
2018/12/24 3:56,4.7,16,4.8,16,6.4,1
2018/12/24 3:57,4.8,16,4.8,16,8.6,1
2018/12/24 3:58,4.9,16,4.9,16,9.1,16
2018/12/24 3:59,5,16,5,16,8.6,16
2018/12/24 4:00,5,16,5,16,8.1,1
2018/12/24 4:01,5,16,5,16,7.2,16
2018/12/24 4:02,5,16,5,16,6.3,16
2018/12/24 4:03,4.7,16,5,16,4.7,1
2018/12/24 4:04,4.6,16,4.7,16,5.5,1
2018/12/24 4:05,4.4,16,4.5,16,5,16
2018/12/24 4:06,4.4,16,4.4,16,5.5,16
2018/12/24 4:07,4.2,16,4.4,16,6.5,16
2018/12/24 4:08,4.1,16,4.2,16,6.7,16
2018/12/24 4:09,4,16,4.1,16,9.4,16
2018/12/24 4:10,4,16,4,16,8.7,1
2018/12/24 4:11,3.8,16,4,16,4.7,1
2018/12/24 4:12,3.8,16,3.9,16,4.9,15
2018/12/24 4:13,4,16,4,16,6.7,16
2018/12/24 4:14,4,16,4.1,16,7.1,1
2018/12/24 4:15,4,16,4,16,6.3,15
2018/12/24 4:16,4,16,4.1,16,7.7,15
2018/12/24 4:17,4.1,16,4.1,16,6.1,16
2018/12/24 4:18,4.1,16,4.1,16,6.8,16
2018/12/24 4:19,4.1,16,4.2,16,7.9,15
2018/12/24 4:20,4.2,16,4.2,16,7.9,14
2018/12/24 4:21,4.5,16,4.5,16,10.1,16
2018/12/24 4:22,4.7,16,4.7,16,7.1,15
2018/12/24 4:23,4.6,16,4.6,16,7.4,14
2018/12/24 4:24,4.7,16,4.7,16,8.9,15
2018/12/24 4:25,4.7,16,4.7,16,7,16
2018/12/24 4:26,4.7,16,4.7,16,6.8,16
2018/12/24 4:27,4.8,16,4.8,16,7.8,16
2018/12/24 4:28,5,16,5,16,11.5,15
2018/12/24 4:29,5.1,16,5.1,16,8.6,1
2018/12/24 4:30,5.1,16,5.1,16,7.9,1
2018/12/24 4:31,5,16,5.1,16,7.6,15
2018/12/24 4:32,4.9,16,4.9,16,7.8,15
2018/12/24 4:33,4.9,16,5,16,8.2,15
2018/12/24 4:34,5,16,5,16,8.3,15
2018/12/24 4:35,5.2,16,5.2,16,8.5,13
2018/12/24 4:36,5.3,16,5.3,16,7.9,15
2018/12/24 4:37,5.4,16,5.5,16,11.3,15
2018/12/24 4:38,5.3,16,5.4,16,8.6,15
2018/12/24 4:39,5.3,16,5.3,16,12.1,14
2018/12/24 4:40,5.4,15,5.4,16,9.8,15
2018/12/24 4:41,5.6,15,5.6,15,10.2,15
2018/12/24 4:42,5.9,15,5.9,15,9.8,14
2018/12/24 4:43,5.9,15,5.9,15,8.3,15
2018/12/24 4:44,5.9,15,5.9,15,7.7,15
2018/12/24 4:45,5.6,15,5.9,15,7.6,15
2018/12/24 4:46,5.4,15,5.6,15,8.7,14
2018/12/24 4:47,5.1,15,5.4,15,4.4,15
2018/12/24 4:48,4.9,15,5.1,15,6.4,16
2018/12/24 4:49,4.6,15,4.9,15,8.1,16
2018/12/24 4:50,4.2,15,4.6,15,4.2,16
2018/12/24 4:51,3.9,15,4.2,15,4.7,16
2018/12/24 4:52,3.5,16,3.8,15,5,16
2018/12/24 4:53,3.4,16,3.5,15,3.5,15
2018/12/24 4:54,3.1,16,3.3,15,4.5,15
2018/12/24 4:55,3,16,3.1,15,3.5,16
2018/12/24 4:56,2.9,16,2.9,15,4.7,16
2018/12/24 4:57,2.9,16,3,15,8.1,2
2018/12/24 4:58,2.9,16,3,15,6.5,1
2018/12/24 4:59,2.8,16,2.9,15,4.7,15
2018/12/24 5:00,2.8,16,2.8,15,4.4,16
2018/12/24 5:01,3,16,3,15,6.9,16
2018/12/24 5:02,2.9,16,3,16,6.2,15
2018/12/24 5:03,3,16,3,16,5.7,15
2018/12/24 5:04,3.1,16,3.1,16,7,15
2018/12/24 5:05,3.4,16,3.4,16,7.1,15
2018/12/24 5:06,3.4,16,3.4,16,6.1,1
2018/12/24 5:07,3.4,16,3.5,16,6.4,15
2018/12/24 5:08,3.3,16,3.4,16,6,15
2018/12/24 5:09,3.3,16,3.3,16,3.6,1
2018/12/24 5:10,3.4,16,3.4,16,5.6,15
2018/12/24 5:11,3,16,3.3,16,3,16
2018/12/24 5:12,2.8,16,3,16,2.6,15
2018/12/24 5:13,2.7,16,2.8,16,2.6,15
2018/12/24 5:14,2.4,15,2.7,16,2,12
2018/12/24 5:15,2.1,15,2.4,16,2.5,13
2018/12/24 5:16,1.9,15,2.1,16,2.4,2
2018/12/24 5:17,1.6,15,1.8,16,2,10
2018/12/24 5:18,1.5,15,1.6,16,3.1,11
2018/12/24 5:19,1.6,14,1.6,16,4.4,14
2018/12/24 5:20,1.5,14,1.6,16,3.1,12
2018/12/24 5:21,1.4,14,1.5,16,2.4,13
2018/12/24 5:22,1.4,14,1.5,16,2.2,16
2018/12/24 5:23,1.6,14,1.6,16,6.3,1
2018/12/24 5:24,1.7,15,1.7,15,4.9,15
2018/12/24 5:25,1.8,15,1.8,15,5,1
2018/12/24 5:26,1.9,15,1.9,15,4.3,16
2018/12/24 5:27,2.3,15,2.3,15,6.5,15
2018/12/24 5:28,2.6,15,2.6,15,7.9,15
2018/12/24 5:29,2.8,16,2.8,16,6.7,16
2018/12/24 5:30,3.2,16,3.2,16,9,16
2018/12/24 5:31,3.5,16,3.5,16,8.1,16
2018/12/24 5:32,4,16,4,16,11.1,16
2018/12/24 5:33,4.2,16,4.2,16,9.9,16
2018/12/24 5:34,4.5,16,4.5,16,8.7,15
2018/12/24 5:35,4.6,16,4.7,16,8.6,16
2018/12/24 5:36,4.9,16,4.9,16,9.1,15
2018/12/24 5:37,4.9,16,4.9,16,7.2,1
2018/12/24 5:38,4.9,16,4.9,16,8.2,15
2018/12/24 5:39,4.8,16,4.9,16,7,15
2018/12/24 5:40,4.6,16,4.8,16,6.7,16
2018/12/24 5:41,4.6,16,4.7,16,8.1,16
2018/12/24 5:42,4.5,16,4.6,16,7,16
2018/12/24 5:43,4.4,16,4.5,16,7.5,15
2018/12/24 5:44,4.4,16,4.4,16,7.8,16
2018/12/24 5:45,4.3,16,4.4,16,6.2,15
2018/12/24 5:46,4.2,16,4.3,16,5.4,16
2018/12/24 5:47,4.1,16,4.2,16,5.4,16
2018/12/24 5:48,3.9,16,4.1,16,4.1,16
2018/12/24 5:49,3.6,16,3.8,16,3.9,1
2018/12/24 5:50,3.4,16,3.6,16,2.7,2
2018/12/24 5:51,3.1,16,3.4,16,3.2,15
2018/12/24 5:52,2.9,16,3.2,16,5.2,16
2018/12/24 5:53,2.8,16,2.9,16,6.9,1
2018/12/24 5:54,2.9,1,2.9,16,10.7,1
2018/12/24 5:55,3,1,3,16,8.3,2
2018/12/24 5:56,2.9,1,2.9,16,6.7,1
2018/12/24 5:57,3,1,3,16,7.4,1
2018/12/24 5:58,3.1,1,3.1,16,6.4,14
2018/12/24 5:59,3.4,16,3.4,16,9.9,16
2018/12/24 6:00,3.6,16,3.6,16,6.8,15
2018/12/24 6:01,3.5,16,3.6,16,3.2,3
2018/12/24 6:02,3.4,16,3.5,16,2.2,1
2018/12/24 6:03,3.3,16,3.4,16,4.4,1
2018/12/24 6:04,2.9,16,3.2,16,5.8,3
2018/12/24 6:05,2.8,16,2.9,16,7.1,1
2018/12/24 6:06,3.2,16,3.2,16,11.4,2
2018/12/24 6:07,3.1,1,3.2,16,8.1,3
2018/12/24 6:08,3.1,1,3.1,16,7.8,1
2018/12/24 6:09,2.9,1,3.1,16,7,15
2018/12/24 6:10,3.3,1,3.3,16,10.2,16
2018/12/24 6:11,3.7,1,3.7,1,9.7,16
2018/12/24 6:12,4,1,4,1,6.4,1
2018/12/24 6:13,4.3,1,4.3,1,7.7,16
2018/12/24 6:14,4.5,1,4.5,1,8.2,1
2018/12/24 6:15,4.7,1,4.8,1,8.4,1
2018/12/24 6:16,4.5,1,4.7,1,5.4,1
2018/12/24 6:17,4.5,1,4.5,1,9.1,1
2018/12/24 6:18,4.6,1,4.7,1,9.2,2
2018/12/24 6:19,4.7,1,4.7,1,5.7,16
2018/12/24 6:20,4.3,1,4.6,1,8.2,16
2018/12/24 6:21,4.5,16,4.5,1,9.2,14
2018/12/24 6:22,4.5,16,4.5,1,7.8,15
2018/12/24 6:23,4.3,16,4.5,1,6.2,16
2018/12/24 6:24,4.2,16,4.3,1,7.7,16
2018/12/24 6:25,4.1,16,4.2,1,7.4,16
2018/12/24 6:26,4.1,16,4.1,1,7.5,14
2018/12/24 6:27,3.8,16,4,1,3.5,2
2018/12/24 6:28,3.6,16,3.8,1,5.6,15
2018/12/24 6:29,3.6,16,3.6,1,4.8,15
2018/12/24 6:30,3.3,16,3.6,16,3,1
2018/12/24 6:31,2.9,16,3.3,16,2.7,3
2018/12/24 6:32,2.6,16,2.9,16,1.9,1
2018/12/24 6:33,2.5,16,2.6,16,6.1,1
2018/12/24 6:34,2.3,16,2.5,16,5.6,1
2018/12/24 6:35,2.2,1,2.3,16,6.9,2
2018/12/24 6:36,2.3,1,2.3,16,7.6,2
2018/12/24 6:37,2.5,1,2.5,16,6.5,2
2018/12/24 6:38,2.6,1,2.6,16,9,15
2018/12/24 6:39,2.6,1,2.7,16,9,16
2018/12/24 6:40,2.8,1,2.8,16,5.6,15
2018/12/24 6:41,2.8,1,2.8,16,3.5,1
2018/12/24 6:42,3,1,3,1,5.6,16
2018/12/24 6:43,3,1,3,1,5.1,1
2018/12/24 6:44,2.9,1,3,1,3.6,1
2018/12/24 6:45,2.8,1,2.9,1,2.1,2
2018/12/24 6:46,2.5,1,2.8,1,2.5,16
2018/12/24 6:47,2.4,1,2.4,1,5.1,3
2018/12/24 6:48,2.2,1,2.4,1,3.3,16
2018/12/24 6:49,2,1,2.1,1,2.7,16
2018/12/24 6:50,2,1,2.1,1,4.1,16
2018/12/24 6:51,2,1,2,1,4.1,14
2018/12/24 6:52,2,1,2,1,3.9,16
2018/12/24 6:53,2,1,2,1,4.3,16
2018/12/24 6:54,1.9,1,2,1,3.2,16
2018/12/24 6:55,2.1,1,2.1,1,5.7,1
2018/12/24 6:56,2.2,16,2.2,1,3.9,14
2018/12/24 6:57,2.3,16,2.3,1,8.7,16
2018/12/24 6:58,2.5,16,2.5,16,8.2,16
2018/12/24 6:59,2.8,16,2.8,16,8.1,16
2018/12/24 7:00,2.9,16,2.9,16,6.3,2
2018/12/24 7:01,3.1,16,3.1,16,6.4,16
2018/12/24 7:02,3.4,1,3.4,1,6.8,2
2018/12/24 7:03,3.6,1,3.6,1,8.7,1
2018/12/24 7:04,3.9,16,3.9,16,9.1,16
2018/12/24 7:05,4,16,4,16,6.8,16
2018/12/24 7:06,4.2,16,4.2,16,9,16
2018/12/24 7:07,4,16,4.2,16,4.7,2
2018/12/24 7:08,3.9,1,4.1,16,5,16
2018/12/24 7:09,3.7,1,3.9,16,3.2,1
2018/12/24 7:10,3.5,16,3.7,16,2.6,16
2018/12/24 7:11,3.2,16,3.5,16,2.6,15
2018/12/24 7:12,3,16,3.2,16,4.3,15
2018/12/24 7:13,2.7,16,3,16,2.6,15
2018/12/24 7:14,2.5,16,2.6,16,3.8,14
2018/12/24 7:15,2.4,16,2.5,16,7.5,2
2018/12/24 7:16,2.5,16,2.5,16,8.3,1
2018/12/24 7:17,2.6,16,2.6,16,6.9,16
2018/12/24 7:18,2.5,16,2.5,1,4.2,16
2018/12/24 7:19,2.5,16,2.5,1,3.8,15
2018/12/24 7:20,2.6,16,2.6,16,5.2,16
2018/12/24 7:21,2.8,16,2.8,16,3.3,16
2018/12/24 7:22,2.6,1,2.8,16,3,2
2018/12/24 7:23,2.6,1,2.6,16,3.6,14
2018/12/24 7:24,2.6,1,2.6,16,4.5,1
2018/12/24 7:25,2.5,1,2.6,16,4.2,16
2018/12/24 7:26,2.2,1,2.5,16,4.5,1
2018/12/24 7:27,2.1,1,2.2,16,3.6,16
2018/12/24 7:28,2.1,1,2.2,16,4.3,16
2018/12/24 7:29,2,1,2.1,16,2.6,15
2018/12/24 7:30,1.9,1,2,16,3.5,1
2018/12/24 7:31,1.8,1,1.9,16,3.5,1
2018/12/24 7:32,1.9,1,1.9,1,2.9,3
2018/12/24 7:33,1.9,1,2,1,3,3
2018/12/24 7:34,1.9,1,1.9,1,3.1,2
2018/12/24 7:35,1.8,1,1.9,1,3.3,16
2018/12/24 7:36,1.7,1,1.8,1,3.2,1
2018/12/24 7:37,1.6,1,1.7,1,2.9,1
2018/12/24 7:38,1.5,1,1.6,1,1.8,15
2018/12/24 7:39,1.4,2,1.5,1,1.9,2
2018/12/24 7:40,1.5,2,1.5,1,4.8,1
2018/12/24 7:41,1.7,2,1.7,1,7,1
2018/12/24 7:42,2,1,2,1,5.6,2
2018/12/24 7:43,2,1,2,1,5.7,15
2018/12/24 7:44,2.1,1,2.1,1,4.1,1
2018/12/24 7:45,2.3,1,2.3,1,4.7,3
2018/12/24 7:46,2.4,1,2.4,1,5,2
2018/12/24 7:47,2.4,1,2.4,1,4.8,2
2018/12/24 7:48,2.5,1,2.5,1,3.7,16
2018/12/24 7:49,2.5,1,2.5,1,2.1,2
2018/12/24 7:50,2.3,1,2.5,1,1.3,15
2018/12/24 7:51,2,1,2.3,1,1.9,16
2018/12/24 7:52,1.7,1,2,1,2,15
2018/12/24 7:53,1.6,1,1.7,1,2.2,16
2018/12/24 7:54,1.5,1,1.6,1,1.9,16
2018/12/24 7:55,1.4,1,1.4,1,2.1,1
2018/12/24 7:56,1.2,1,1.3,1,0.9,1
2018/12/24 7:57,1.3,16,1.3,1,5.1,1
2018/12/24 7:58,1.5,16,1.5,1,4.7,16
2018/12/24 7:59,1.6,16,1.6,1,4.1,1
2018/12/24 8:00,1.8,16,1.8,1,3.3,1
2018/12/24 8:01,1.9,1,1.9,1,2.5,1
2018/12/24 8:02,1.9,1,2,1,2.7,3
2018/12/24 8:03,1.8,1,1.9,1,0.9,14
2018/12/24 8:04,1.7,1,1.8,1,0.9,6
2018/12/24 8:05,1.7,1,1.7,1,1.5,2
2018/12/24 8:06,1.7,1,1.7,1,1.1,16
2018/12/24 8:07,1.4,1,1.7,1,1.6,15
2018/12/24 8:08,1.2,1,1.4,1,1.4,15
2018/12/24 8:09,1,1,1.2,1,1.6,15
2018/12/24 8:10,0.9,16,1,1,1.4,15
2018/12/24 8:11,0.7,16,0.8,1,0.4,16
2018/12/24 8:12,0.6,16,0.7,1,0.8,2
2018/12/24 8:13,0.6,16,0.6,1,0.4,16
2018/12/24 8:14,0.6,16,0.6,1,0.5,14
2018/12/24 8:15,0.5,15,0.6,1,0.4,11
2018/12/24 8:16,0.5,15,0.5,1,0.3,16
2018/12/24 8:17,0.4,15,0.4,1,0.4,1
2018/12/24 8:18,0.3,16,0.3,1,0.6,3
2018/12/24 8:19,0.2,16,0.3,1,1,1
2018/12/24 8:20,0.2,16,0.2,16,0.3,16
2018/12/24 8:21,0.2,1,0.2,16,0.5,5
2018/12/24 8:22,0.2,1,0.2,16,0.4,7
2018/12/24 8:23,0.1,2,0.2,16,0.1,7
2018/12/24 8:24,0.2,4,0.2,16,0.9,9
2018/12/24 8:25,0.2,4,0.2,15,0.6,10
2018/12/24 8:26,0.3,6,0.3,15,1.1,12
2018/12/24 8:27,0.4,7,0.4,7,1.5,13
2018/12/24 8:28,0.5,10,0.5,10,1.8,13
2018/12/24 8:29,0.5,11,0.5,10,1.6,13
2018/12/24 8:30,0.6,11,0.6,11,1,12
2018/12/24 8:31,0.6,12,0.6,11,0.6,14
2018/12/24 8:32,0.6,12,0.6,11,0.5,14
2018/12/24 8:33,0.7,13,0.7,13,0.9,15
2018/12/24 8:34,0.7,13,0.7,13,0.8,14
2018/12/24 8:35,0.7,13,0.7,13,0.9,14
2018/12/24 8:36,0.7,14,0.7,13,0.5,15
2018/12/24 8:37,0.6,14,0.7,13,0.9,16
2018/12/24 8:38,0.6,14,0.6,13,1.4,15
2018/12/24 8:39,0.5,14,0.6,13,1.3,15
2018/12/24 8:40,0.6,15,0.6,13,2,15
2018/12/24 8:41,0.7,15,0.7,13,1.3,16
2018/12/24 8:42,0.8,15,0.8,15,1.5,16
2018/12/24 8:43,0.8,15,0.8,15,1.4,16
2018/12/24 8:44,0.8,16,0.8,15,1.5,2
2018/12/24 8:45,0.9,16,0.9,16,1.4,1
2018/12/24 8:46,0.9,16,0.9,16,1.4,2
2018/12/24 8:47,1,1,1,1,1.1,1
2018/12/24 8:48,1,1,1,1,1,1
2018/12/24 8:49,0.9,1,1,1,0.9,2
2018/12/24 8:50,0.9,2,0.9,1,0.6,4
2018/12/24 8:51,0.8,2,0.8,1,0.8,3
2018/12/24 8:52,0.7,2,0.8,1,1,4
2018/12/24 8:53,0.7,2,0.7,1,1.5,4
2018/12/24 8:54,0.7,2,0.8,1,1.4,4
2018/12/24 8:55,0.7,3,0.7,1,1.4,2
2018/12/24 8:56,0.7,3,0.7,1,1.1,4
2018/12/24 8:57,0.7,3,0.7,1,0.8,5
2018/12/24 8:58,0.6,3,0.7,1,0.6,4
2018/12/24 8:59,0.6,3,0.6,1,0.5,4
2018/12/24 9:00,0.6,4,0.6,2,0.6,4
2018/12/24 9:01,0.6,4,0.6,2,0.6,5
2018/12/24 9:02,0.6,4,0.6,2,0.5,7
2018/12/24 9:03,0.6,4,0.6,2,1.5,8
2018/12/24 9:04,0.5,4,0.6,2,0.3,7
2018/12/24 9:05,0.4,5,0.5,3,0.6,12
2018/12/24 9:06,0.4,5,0.4,3,0.6,10
2018/12/24 9:07,0.4,6,0.4,3,1.1,10
2018/12/24 9:08,0.4,7,0.4,3,1.3,10
2018/12/24 9:09,0.4,8,0.4,3,0.3,10
2018/12/24 9:10,0.3,9,0.4,4,0.3,8
2018/12/24 9:11,0.3,10,0.3,4,1.3,10
2018/12/24 9:12,0.4,11,0.4,4,1.3,11
2018/12/24 9:13,0.4,11,0.4,4,1.4,10
2018/12/24 9:14,0.5,11,0.5,4,1.1,8
2018/12/24 9:15,0.5,10,0.5,11,1.3,9
2018/12/24 9:16,0.5,10,0.5,11,1.3,8
2018/12/24 9:17,0.5,11,0.5,11,0.9,12
2018/12/24 9:18,0.4,11,0.5,11,0.5,10
2018/12/24 9:19,0.4,11,0.4,11,1,16
2018/12/24 9:20,0.5,11,0.5,11,0.5,14
2018/12/24 9:21,0.5,11,0.5,11,1.1,3
2018/12/24 9:22,0.5,12,0.5,11,2,1
2018/12/24 9:23,0.5,14,0.5,11,1.5,3
2018/12/24 9:24,0.5,16,0.5,10,1.1,3
2018/12/24 9:25,0.5,16,0.5,10,0.5,15
2018/12/24 9:26,0.5,16,0.5,10,1.3,13
2018/12/24 9:27,0.6,16,0.6,16,2.1,13
2018/12/24 9:28,0.8,16,0.8,16,4.3,15
2018/12/24 9:29,0.9,1,0.9,1,2.6,16
2018/12/24 9:30,1.1,1,1.1,1,2.5,16
2018/12/24 9:31,1.1,16,1.1,1,2.1,15
2018/12/24 9:32,1.1,16,1.1,1,1.5,16
2018/12/24 9:33,1.1,15,1.1,1,2.1,1
2018/12/24 9:34,1.2,15,1.2,15,2.5,2
2018/12/24 9:35,1.3,15,1.3,15,1.8,3
2018/12/24 9:36,1.3,16,1.3,15,0.9,15
2018/12/24 9:37,1.3,16,1.3,15,2.4,15
2018/12/24 9:38,1.3,16,1.3,15,3.2,13
2018/12/24 9:39,1.3,16,1.3,15,2.6,13
2018/12/24 9:40,1.2,16,1.3,15,1.6,1
2018/12/24 9:41,1.2,16,1.2,15,2.1,1
2018/12/24 9:42,1.4,16,1.4,16,3.3,16
2018/12/24 9:43,1.4,16,1.4,16,2.4,16
2018/12/24 9:44,1.4,16,1.4,16,3.2,16
2018/12/24 9:45,1.5,16,1.5,16,3,1
2018/12/24 9:46,1.7,16,1.7,16,3.2,16
2018/12/24 9:47,1.8,16,1.8,16,4.9,1
2018/12/24 9:48,1.9,16,1.9,16,3.7,16
2018/12/24 9:49,1.8,16,1.9,16,3,16
2018/12/24 9:50,1.9,16,1.9,16,3.5,16
2018/12/24 9:51,1.9,16,1.9,16,3.1,1
2018/12/24 9:52,1.9,16,2,16,3.5,14
2018/12/24 9:53,1.9,16,1.9,16,3.2,15
2018/12/24 9:54,2,16,2,16,6.1,15
2018/12/24 9:55,2.2,16,2.2,16,5.6,16
2018/12/24 9:56,2.2,16,2.2,16,3.8,2
2018/12/24 9:57,2.1,16,2.2,16,1.5,2
2018/12/24 9:58,2,16,2.1,16,3.7,1
2018/12/24 9:59,2,16,2,16,3.5,3
2018/12/24 10:00,2,1,2,16,2.9,3
2018/12/24 10:01,2,1,2,16,3,3
2018/12/24 10:02,2,1,2,16,2.6,16
2018/12/24 10:03,2,1,2,16,3.6,15
2018/12/24 10:04,1.8,2,2,16,2.6,1
2018/12/24 10:05,1.6,2,1.8,16,3,4
2018/12/24 10:06,1.6,2,1.6,16,3.8,3
2018/12/24 10:07,1.7,2,1.7,16,3.2,2
2018/12/24 10:08,1.7,2,1.7,16,1.9,1
2018/12/24 10:09,1.6,2,1.7,16,1.4,2
2018/12/24 10:10,1.6,2,1.6,1,3.3,2
2018/12/24 10:11,1.5,2,1.6,1,2.9,3
2018/12/24 10:12,1.6,2,1.6,1,4.1,1
2018/12/24 10:13,1.6,2,1.6,1,3.6,1
2018/12/24 10:14,1.7,2,1.7,2,4.1,1
2018/12/24 10:15,1.8,2,1.8,2,6,3
2018/12/24 10:16,1.7,2,1.8,2,3.5,15
2018/12/24 10:17,1.8,2,1.8,2,4.9,16
2018/12/24 10:18,2,1,2,1,5.8,16
2018/12/24 10:19,2.2,1,2.2,1,4.4,1
2018/12/24 10:20,2.2,1,2.2,1,2.6,1
2018/12/24 10:21,2.2,1,2.2,1,2.4,2
2018/12/24 10:22,2.1,1,2.2,1,2.2,2
2018/12/24 10:23,2,2,2.1,1,0.8,5
2018/12/24 10:24,1.8,2,1.9,1,1,16
2018/12/24 10:25,1.8,1,1.8,1,3.7,1
2018/12/24 10:26,1.9,1,1.9,1,5,15
2018/12/24 10:27,1.9,1,1.9,1,6.1,1
2018/12/24 10:28,1.9,2,1.9,1,5.4,2
2018/12/24 10:29,2,2,2,1,4.1,1
2018/12/24 10:30,2.1,2,2.1,1,5.2,1
2018/12/24 10:31,2.2,1,2.2,1,4.8,15
2018/12/24 10:32,2.2,1,2.2,2,2.5,2
2018/12/24 10:33,2.4,1,2.4,1,3.8,15
2018/12/24 10:34,2.6,1,2.6,1,4.4,1
2018/12/24 10:35,2.6,1,2.6,1,3.9,16
2018/12/24 10:36,2.7,1,2.7,1,7.6,1
2018/12/24 10:37,2.8,1,2.8,1,6.3,1
2018/12/24 10:38,2.8,1,2.8,1,4.2,1
2018/12/24 10:39,2.8,1,2.8,1,5.1,2
2018/12/24 10:40,2.9,1,2.9,1,5.5,3
2018/12/24 10:41,2.8,1,2.9,1,4.3,2
2018/12/24 10:42,3,1,3,1,4.2,3
2018/12/24 10:43,3.1,1,3.1,1,5.2,1
2018/12/24 10:44,3.2,1,3.2,1,7,1
2018/12/24 10:45,3.3,2,3.3,2,5.1,2
2018/12/24 10:46,3.2,2,3.3,2,5,2
2018/12/24 10:47,3.1,2,3.2,2,4.4,2
2018/12/24 10:48,3.1,2,3.1,2,3.5,1
2018/12/24 10:49,3,2,3.1,2,3.9,3
2018/12/24 10:50,3,2,3,2,5.5,4
2018/12/24 10:51,3.1,2,3.1,2,4.9,3